Location: Zengebe
(1.4833°N, 32.5167°E)
Time: 09:27:03
(UTC+00:00)

Sylda 5 - Pass Details

Date: 07 June 2020
Orbit: 592 x 35508 km, 7.1° (Epoch: 03 July)

Event Time Altitude Azimuth Distance (km) Brightness Sun altitude
Exits shadow 03:09:44 - 262° (W) 13,116 8.1 -8.4°
Reaches altitude 10° 03:21:36 10° 260° (W) 9,191 7.3 -5.7°
Maximum altitude 03:41:14 52° 186° (S) 1,581 4.0 -1.2°
Drops below altitude 10° 03:45:41 10° 108° (ESE) 2,284 5.8 -0.2°
Sets 03:47:15 0° 101° (E) 2,965 6.6 0.2°
